Location: Newark
(13.6797°N, 8.5297°E)
Time: 18:01:29
(UTC+00:00)

Altair - Pass Details

Date: 30 January 2020
Orbit: 1502 x 1682 km, 47.2° (Epoch: 25 February)

Event Time Altitude Azimuth Distance (km) Brightness Sun altitude
Rises 14:06:37 0° 322° (NW) 4,913 10.1 42.0°
Reaches altitude 10° 14:09:51 10° 325° (NW) 3,912 9.7 41.3°
Maximum altitude 14:19:49 69° 47° (NE) 1,721 8.1 39.4°
Drops below altitude 10° 14:29:25 10° 129° (SE) 3,779 9.5 37.6°
Sets 14:32:28 0° 132° (SE) 4,739 10.0 37.0°
